GW7009 Weather Reports


time (UTC)temp
F
wind
direction
speed
knots
gust
knots
rain 1hr
in
rain 24hr
in
rain mn
in
humidity
%
barometer
mb
20260504214511 73 220 5.2 9.6 0.00 0.00 0.00 36 1008.5
20260504213026 72 224 3.5 13.0 0.00 0.00 0.00 35 1008.5
20260504211532 73 126 2.6 9.6 0.00 0.00 0.00 40 1008.6
20260504210022 72 257 2.6 13.9 0.00 0.00 0.00 35 1008.7
20260504204515 72 221 2.6 8.7 0.00 0.00 0.00 36 1008.7
20260504203019 72 230 5.2 9.6 0.00 0.00 0.00 36 1008.9
20260504201522 72 214 2.6 7.8 0.00 0.00 0.00 39 1009.1
20260504200024 72 216 6.1 11.3 0.00 0.00 0.00 36 1009.3
20260504194510 72 263 3.5 13.0 0.00 0.00 0.00 40 1009.4
20260504193015 71 263 7.8 14.8 0.00 0.00 0.00 36 1009.9
20260504191525 70 242 8.7 13.9 0.00 0.00 0.00 35 1010.0
20260504190026 71 277 6.1 11.3 0.00 0.00 0.00 36 1010.1
20260504184536 69 216 2.6 13.0 0.00 0.00 0.00 36 1010.2
20260504183012 70 288 2.6 11.3 0.00 0.00 0.00 38 1010.3
20260504181517 70 351 5.2 12.2 0.00 0.00 0.00 39 1010.6
20260504180025 69 257 5.2 13.9 0.00 0.00 0.00 37 1010.8
20260504174526 68 269 7.8 12.2 0.00 0.00 0.00 37 1011.0
20260504173013 68 228 6.1 11.3 0.00 0.00 0.00 38 1011.2
20260504171522 68 212 4.3 12.2 0.00 0.00 0.00 37 1011.5
20260504081524 46 319 0.0 1.7 0.00 0.00 0.00 55 1014.2
20260504044521 51 231 1.7 6.1 0.00 0.00 0.00 45 1014.2
20260504043008 52 226 0.9 5.2 0.00 0.00 0.00 43 1014.2
20260504041513 51 207 1.7 5.2 0.00 0.00 0.00 46 1014.2
20260504040017 51 243 1.7 6.1 0.00 0.00 0.00 44 1014.0
20260504034522 51 219 1.7 4.3 0.00 0.00 0.00 45 1013.8
20260504033027 51 226 1.7 4.3 0.00 0.00 0.00 45 1013.7
20260504031511 52 210 1.7 6.1 0.00 0.00 0.00 44 1013.6
20260504030013 52 233 2.6 4.3 0.00 0.00 0.00 44 1013.4
20260504024520 51 211 1.7 2.6 0.00 0.00 0.00 45 1013.5
20260504023025 53 201 1.7 4.3 0.00 0.00 0.00 42 1013.6
20260504021506 51 229 1.7 3.5 0.00 0.00 0.00 44 1013.7
20260504020016 52 210 1.7 4.3 0.00 0.00 0.00 44 1013.7
20260504014524 52 209 0.9 2.6 0.00 0.00 0.00 44 1013.6
20260504013023 51 211 0.9 2.6 0.00 0.00 0.00 43 1013.6
20260504011524 52 225 0.9 2.6 0.00 0.00 0.00 45 1013.4
20260504010009 53 219 0.9 2.6 0.00 0.00 0.00 45 1013.5
20260504004519 53 216 0.9 1.7 0.00 0.00 0.00 41 1013.4
20260504003018 54 214 0.9 3.5 0.00 0.00 0.00 40 1013.3
20260504001525 54 240 0.9 1.7 0.00 0.00 0.00 41 1013.1
20260504000025 55 271 0.9 5.2 0.00 0.00 0.00 39 1013.0
20260503234512 56 297 1.7 4.3 0.00 0.00 0.00 40 1012.8
20260503233026 57 280 2.6 6.1 0.00 0.00 0.00 40 1012.7
20260503231522 58 286 2.6 10.4 0.00 0.00 0.00 37 1012.7
20260503230028 58 282 4.3 11.3 0.00 0.00 0.00 35 1012.5
20260503224530 58 300 2.6 10.4 0.00 0.00 0.00 37 1012.6
20260503223013 59 269 5.2 12.2 0.00 0.00 0.00 36 1012.5
20260503221526 59 303 6.1 13.0 0.00 0.00 0.00 34 1012.5
20260503220024 59 313 5.2 11.3 0.00 0.00 0.00 35 1012.7